When you browse on this site, cookies collect data to enhance your experience and personalize the content and advertising you see.
Visit our Privacy Policy to learn more. By continuing to use the site, you agree to this use of cookies and data.
  • In Czech Republic
  • List of Countries
  • For 7 days
  • Water Temperature
  • Weather Map
  • Weather Widgets
  • user-avatar
    Login

    Hourly Weather Adelaide

    Today, 18 August, Sunday

    Time Temperature Precipitation Wind Pressure Humidity
    00:00 +12°C° 0 mm 3 mps 752 mmHg 78%
    01:00 +12°C° 0.4 mm 4 mps 752 mmHg 82%
    02:00 +11°C° 0.4 mm 4 mps 752 mmHg 86%
    03:00 +10°C° 0 mm 5 mps 752 mmHg 91%
    04:00 +10°C° 0.3 mm 6 mps 752 mmHg 89%
    05:00 +9°C° 0.3 mm 7 mps 753 mmHg 86%
    06:00 +8°C° 0.3 mm 9 mps 753 mmHg 84%
    07:00 +8°C° 0.2 mm 9 mps 753 mmHg 81%
    08:00 +8°C° 0.2 mm 10 mps 753 mmHg 79%
    09:00 +8°C° 0 mm 9 mps 754 mmHg 76%
    10:00 +8°C° 0.9 mm 9 mps 754 mmHg 76%
    11:00 +8°C° 0.9 mm 9 mps 754 mmHg 76%
    12:00 +8°C° 0.9 mm 9 mps 754 mmHg 76%
    13:00 +9°C° 0.3 mm 8 mps 755 mmHg 72%
    14:00 +9°C° 0.3 mm 7 mps 755 mmHg 68%
    15:00 +9°C° 0 mm 8 mps 756 mmHg 69%
    16:00 +8°C° 0.4 mm 7 mps 756 mmHg 72%
    17:00 +8°C° 0.4 mm 7 mps 757 mmHg 75%
    18:00 +6°C° 0.4 mm 7 mps 758 mmHg 78%
    19:00 +6°C° 0.1 mm 7 mps 758 mmHg 78%
    20:00 +6°C° 0.1 mm 7 mps 759 mmHg 77%
    21:00 +5°C° 0 mm 7 mps 760 mmHg 77%
    22:00 +5°C° 0 mm 7 mps 761 mmHg 76%
    23:00 +5°C° 0 mm 7 mps 761 mmHg 75%

    Tomorrow, 19 August, Monday

    Time Temperature Precipitation Wind Pressure Humidity
    00:00 +5°C° 0 mm 6 mps 762 mmHg 74%
    01:00 +5°C° 0 mm 7 mps 762 mmHg 73%
    02:00 +5°C° 0 mm 7 mps 763 mmHg 71%
    03:00 +5°C° 0 mm 7 mps 763 mmHg 70%
    04:00 +5°C° 0 mm 6 mps 763 mmHg 71%
    05:00 +7°C° 0 mm 6 mps 764 mmHg 72%
    06:00 +7°C° 0 mm 6 mps 764 mmHg 73%
    07:00 +8°C° 0 mm 6 mps 765 mmHg 71%
    08:00 +8°C° 0 mm 7 mps 766 mmHg 68%
    09:00 +9°C° 0 mm 7 mps 766 mmHg 66%
    10:00 +10°C° 0 mm 6 mps 767 mmHg 64%
    11:00 +10°C° 0 mm 6 mps 767 mmHg 62%
    12:00 +12°C° 0 mm 5 mps 767 mmHg 61%
    13:00 +10°C° 0 mm 5 mps 767 mmHg 62%
    14:00 +11°C° 0 mm 4 mps 767 mmHg 64%
    15:00 +11°C° 0 mm 4 mps 767 mmHg 65%
    16:00 +11°C° 0 mm 4 mps 767 mmHg 70%
    17:00 +10°C° 0 mm 3 mps 768 mmHg 74%
    18:00 +9°C° 0 mm 3 mps 768 mmHg 79%
    19:00 +8°C° 0.1 mm 4 mps 769 mmHg 80%
    20:00 +10°C° 0.1 mm 4 mps 769 mmHg 82%
    21:00 +9°C° 0.1 mm 5 mps 769 mmHg 83%
    22:00 +10°C° 0 mm 4 mps 769 mmHg 82%
    23:00 +8°C° 0 mm 4 mps 769 mmHg 82%

    Day after tomorrow, 20 August, Tuesday

    Time Temperature Precipitation Wind Pressure Humidity
    00:00 +9°C° 0 mm 3 mps 769 mmHg 81%
    01:00 +8°C° 0 mm 4 mps 769 mmHg 82%
    02:00 +10°C° 0 mm 4 mps 769 mmHg 83%
    03:00 +10°C° 0 mm 4 mps 768 mmHg 84%
    04:00 +10°C° 0 mm 4 mps 768 mmHg 85%
    05:00 +10°C° 0 mm 4 mps 768 mmHg 85%
    06:00 +11°C° 0 mm 4 mps 769 mmHg 86%
    07:00 +10°C° 0 mm 5 mps 769 mmHg 82%
    08:00 +12°C° 0 mm 5 mps 769 mmHg 79%
    09:00 +11°C° 0 mm 6 mps 769 mmHg 76%
    10:00 +11°C° 0 mm 6 mps 769 mmHg 75%
    11:00 +13°C° 0 mm 5 mps 769 mmHg 74%
    12:00 +13°C° 0 mm 5 mps 769 mmHg 74%
    13:00 +13°C° 0 mm 6 mps 768 mmHg 76%
    14:00 +11°C° 0 mm 6 mps 768 mmHg 78%
    15:00 +11°C° 0 mm 6 mps 767 mmHg 80%
    16:00 +11°C° 0.1 mm 6 mps 767 mmHg 82%
    17:00 +11°C° 0.1 mm 6 mps 767 mmHg 83%
    18:00 +11°C° 0.1 mm 7 mps 767 mmHg 84%
    19:00 +11°C° 0.1 mm 6 mps 767 mmHg 85%
    20:00 +11°C° 0.1 mm 6 mps 767 mmHg 86%
    21:00 +10°C° 0.1 mm 6 mps 767 mmHg 87%
    22:00 +10°C° 0.1 mm 6 mps 767 mmHg 86%
    23:00 +10°C° 0.1 mm 6 mps 767 mmHg 85%

    21 August, Wednesday

    Time Temperature Precipitation Wind Pressure Humidity
    00:00 +10°C° 0.1 mm 5 mps 767 mmHg 84%
    01:00 +10°C° 0 mm 5 mps 767 mmHg 85%
    02:00 +10°C° 0 mm 5 mps 766 mmHg 87%
    03:00 +12°C° 0 mm 5 mps 766 mmHg 88%
    04:00 +12°C° 0 mm 5 mps 766 mmHg 88%
    05:00 +12°C° 0 mm 5 mps 766 mmHg 88%
    06:00 +12°C° 0 mm 5 mps 766 mmHg 88%
    07:00 +12°C° 0.1 mm 5 mps 767 mmHg 87%
    08:00 +12°C° 0.1 mm 5 mps 767 mmHg 86%
    09:00 +12°C° 0.1 mm 5 mps 767 mmHg 85%
    10:00 +13°C° 0.1 mm 5 mps 767 mmHg 85%
    11:00 +13°C° 0.1 mm 5 mps 767 mmHg 84%
    12:00 +13°C° 0.1 mm 5 mps 767 mmHg 84%
    13:00 +13°C° 0.1 mm 5 mps 767 mmHg 82%
    14:00 +13°C° 0.1 mm 5 mps 766 mmHg 81%
    15:00 +13°C° 0.1 mm 4 mps 766 mmHg 79%
    16:00 +13°C° 0 mm 4 mps 766 mmHg 81%
    17:00 +12°C° 0 mm 3 mps 767 mmHg 83%
    18:00 +12°C° 0 mm 3 mps 767 mmHg 85%
    19:00 +11°C° 0 mm 3 mps 767 mmHg 87%
    20:00 +11°C° 0 mm 3 mps 767 mmHg 88%
    21:00 +11°C° 0 mm 3 mps 768 mmHg 89%
    22:00 +11°C° 0 mm 3 mps 767 mmHg 90%
    23:00 +10°C° 0 mm 2 mps 767 mmHg 91%

    22 August, Thursday

    Time Temperature Precipitation Wind Pressure Humidity
    00:00 +10°C° 0 mm 2 mps 767 mmHg 92%
    01:00 +10°C° 0 mm 2 mps 767 mmHg 92%
    02:00 +10°C° 0 mm 2 mps 767 mmHg 92%
    03:00 +10°C° 0 mm 2 mps 767 mmHg 92%
    04:00 +10°C° 0 mm 2 mps 767 mmHg 92%
    05:00 +11°C° 0 mm 1 mps 767 mmHg 92%
    06:00 +11°C° 0 mm 1 mps 767 mmHg 93%
    07:00 +12°C° 0 mm 1 mps 767 mmHg 89%
    08:00 +13°C° 0 mm 2 mps 768 mmHg 86%
    09:00 +14°C° 0 mm 2 mps 768 mmHg 83%
    10:00 +14°C° 0 mm 2 mps 768 mmHg 78%
    11:00 +13°C° 0 mm 3 mps 767 mmHg 74%
    12:00 +14°C° 0 mm 3 mps 767 mmHg 69%
    13:00 +14°C° 0 mm 3 mps 767 mmHg 68%
    14:00 +14°C° 0 mm 3 mps 766 mmHg 67%
    15:00 +14°C° 0 mm 2 mps 766 mmHg 65%
    16:00 +13°C° 0 mm 2 mps 766 mmHg 69%
    17:00 +12°C° 0 mm 1 mps 766 mmHg 73%
    18:00 +11°C° 0 mm 1 mps 766 mmHg 77%
    19:00 +11°C° 0 mm 1 mps 766 mmHg 78%
    20:00 +10°C° 0 mm 1 mps 767 mmHg 80%
    21:00 +10°C° 0 mm 1 mps 767 mmHg 81%
    22:00 +10°C° 0 mm 1 mps 766 mmHg 82%
    23:00 +8°C° 0 mm 2 mps 766 mmHg 82%

    23 August, Friday

    Time Temperature Precipitation Wind Pressure Humidity
    00:00 +8°C° 0 mm 2 mps 765 mmHg 83%
    01:00 +8°C° 0 mm 2 mps 765 mmHg 83%
    02:00 +8°C° 0 mm 2 mps 764 mmHg 84%
    03:00 +8°C° 0 mm 3 mps 764 mmHg 84%
    04:00 +8°C° 0 mm 3 mps 764 mmHg 85%
    05:00 +8°C° 0 mm 3 mps 763 mmHg 86%
    06:00 +7°C° 0 mm 4 mps 763 mmHg 87%
    07:00 +8°C° 0 mm 4 mps 763 mmHg 82%
    08:00 +10°C° 0 mm 5 mps 763 mmHg 77%
    09:00 +12°C° 0 mm 5 mps 762 mmHg 71%
    10:00 +14°C° 0 mm 6 mps 762 mmHg 68%
    11:00 +15°C° 0 mm 6 mps 761 mmHg 64%
    12:00 +16°C° 0 mm 7 mps 760 mmHg 61%
    13:00 +16°C° 0 mm 7 mps 759 mmHg 61%
    14:00 +16°C° 0 mm 6 mps 758 mmHg 61%
    15:00 +16°C° 0 mm 6 mps 758 mmHg 61%
    16:00 +15°C° 0 mm 5 mps 758 mmHg 65%
    17:00 +14°C° 0 mm 5 mps 758 mmHg 68%
    18:00 +13°C° 0 mm 4 mps 757 mmHg 72%
    19:00 +13°C° 0 mm 4 mps 757 mmHg 70%
    20:00 +13°C° 0 mm 4 mps 757 mmHg 68%
    21:00 +13°C° 0 mm 4 mps 757 mmHg 67%
    22:00 +13°C° 0 mm 5 mps 756 mmHg 67%
    23:00 +13°C° 0 mm 5 mps 756 mmHg 68%
    Show more